Regional Weather Roundup
Issued by NWS

Home | Current Version | Previous Version | Text Only | Print | Product List | Glossary Off
Versions: 1 2 3 4 5 6 7 8 9 10 11 12 13 14 15 16 17 18 19 20 21 22 23 24 25 26 27 28 29 30 31 32 33 34 35 36 37 38 39 40 41 42 43 44 45 46 47 48 49 50

000
ASUS43 KDMX 200107
RWRIA

WEATHER ROUNDUP FOR IOWA
NATIONAL WEATHER SERVICE DES MOINES IA
800 PM CDT TUE AUG 19 2014

NOTE: "FAIR" INDICATES FEW OR NO CLOUDS BELOW 12,000 FEET WITH NO
SIGNIFICANT WEATHER AND/OR OBSTRUCTIONS TO VISIBILITY.

* - THESE STATIONS ARE NOT NWS STATIONS...THUS NOT UNDER NWS
QUALITY CONTROL.  THEY ALSO DO NOT REPORT WEATHER SUCH
AS PRECIPITATION OR FOG.

IAZ001>003-012>014-020>022-031>034-043>046-200200-
   NORTHWEST IOWA

CITY           SKY/WX    TMP DP  RH WIND       PRES   REMARKS
CARROLL *      CLEAR     75  70  83 CALM      29.80F
CHEROKEE *     CLEAR     75  70  83 CALM      29.80R
DENISON *      CLEAR     77  70  78 CALM      29.79S
LE MARS *      CLEAR     77  66  69 CALM      29.80R
ORANGE CITY *  CLEAR     81  63  54 CALM      29.80S HX  82
SHELDON *      CLEAR     73  68  83 SW3       29.79S
SIOUX CITY     CLEAR     78  68  71 S3        29.79R HX  80
SPENCER        CLEAR     73  68  84 SW6       29.80R
STORM LAKE *   CLEAR     73  72  94 CALM      29.82R FOG
$$

IAZ055>058-069>071-079>083-090>094-200200-
   SOUTHWEST IOWA

CITY           SKY/WX    TMP DP  RH WIND       PRES   REMARKS
ATLANTIC *     CLEAR     77  70  78 CALM      29.79F
AUDUBON *      CLEAR     79  72  78 CALM      29.82S HX  82
CLARINDA *     CLEAR     79  73  83 CALM      29.80S HX  82
COUNCIL BLFS * CLEAR     79  70  73 E3        29.79S HX  81
CRESTON *      CLEAR     79  66  65 CALM      29.82S HX  81
HARLAN  *      CLEAR     77  72  83 CALM      29.84R
LAMONI         CLEAR     80  69  69 CALM      29.81S HX  83
RED OAK *      CLEAR     81  72  74 CALM      29.79S HX  84
SHENANDOAH *   CLEAR     79  73  83 SE5       29.79S HX  82
$$

IAZ047>049-059>061-072>074-084-200200-
   CENTRAL IOWA

CITY           SKY/WX    TMP DP  RH WIND       PRES   REMARKS
AMES           CLEAR     74  67  78 SW6       29.79R
ANKENY *       CLEAR     79  66  65 W3        29.79S HX  81
CHARITON *     CLEAR     79  70  73 CALM      29.81S HX  81
DES MOINES     PTCLDY    81  65  58 W3        29.79R HX  83
GRINNELL*      CLEAR     72  66  83 SW3       29.81R
KNOXVILLE *    CLEAR     77  66  69 SW5       29.79R
MARSHALLTOWN   CLEAR     75  68  78 SW3       29.78S
PELLA *        CLEAR     79  66  65 CALM      29.81R HX  81
PERRY *          N/A     75  70  83 CALM      29.81R
$$

IAZ004>006-015-016-023>025-035-036-200200-
   NORTH CENTRAL IOWA

CITY           SKY/WX    TMP DP  RH WIND       PRES   REMARKS
ALGONA *       PTCLDY    75  66  73 SW5       29.79S
CLARION *      CLEAR     75  68  78 SW5       29.79S
ESTHERVILLE    CLEAR     74  67  78 W3        29.79R
FORT DODGE *   CLEAR     73  64  73 W3        29.80S
MASON CITY     PTCLDY    76  67  73 CALM      29.79S
FOREST CITY *  CLEAR     77  66  69 CALM      29.79R
IOWA FALLS *     N/A     75  68  78 CALM      29.80R
$$

IAZ007>011-017>019-026>030-037>042-050>054-066-200200-
   NORTHEAST IOWA

CITY           SKY/WX    TMP DP  RH WIND       PRES   REMARKS
CEDAR RAPIDS   CLEAR     75  66  73 NW6       29.77S
CHARLES CITY * CLEAR     73  66  78 W3        29.79R
CLINTON *      CLEAR     73  64  73 NW6       29.79S
DECORAH *      CLEAR     73  64  73 CALM      29.77R
DUBUQUE        CLEAR     73  63  70 W3        29.78R
MONTICELLO *   CLEAR     73  64  73 W5        29.77R
OELWEIN *      CLEAR     73  66  78 NW5       29.79R
WATERLOO       CLEAR     77  65  66 CALM      29.77R
$$

IAZ064-065-067-068-078-200200-
   EAST CENTRAL IOWA

CITY           SKY/WX    TMP DP  RH WIND       PRES   REMARKS
DAVENPORT      CLEAR     73  65  75 W6        29.78R
IOWA CITY      CLEAR     78  65  63 W5        29.78S HX  80
MT. PLEASANT * CLEAR     77  63  61 W3        29.79R
MUSCATINE *    CLEAR     77  66  69 W5        29.77S
QUAD CITIES    CLEAR     80  64  58 NW6       29.76R HX  82
$$

IAZ062-063-075>077-085>089-095>099-200200-
   SOUTHEAST IOWA

CITY           SKY/WX    TMP DP  RH WIND       PRES   REMARKS
BURLINGTON     CLEAR     77  65  66 NW5       29.78R
FAIRFIELD *    CLEAR     73  68  83 NW5       29.80R
FORT MADISON * CLEAR     73  72  94 CALM      29.79R
KEOKUK *       CLEAR     79  73  83 CALM      29.78R HX  82
OSKALOOSA *      N/A     77  68  73 CALM      29.80S
CENTERVILLE *  CLEAR     73  73 100 CALM      29.82R
OTTUMWA        CLEAR     76  68  76 CALM      29.79R
WASHINGTON *   CLEAR     75  68  78 W5        29.79R
$$

ABBREVIATIONS USED IN REMARKS
   TC - TEMPERATURES IN CELSIUS
  WCI - WIND CHILL INDEX
   HX - HEAT INDEX
  VSB - VISIBILITY
$$




USA.gov is the U.S. government's official web portal to all federal, state and local government web resources and services.